Terug naar catalogus

STARLINK-3256

ActiefCommunicatieVLEO
NORAD 50202·PAYLOAD·🇺🇸 United States

Gelanceerd Dec 18, 2021 vanaf Vandenberg Space Force Base

Loading…

Volgende Passages (komende 24 uur)

TLE

VersSource: CelesTrak SupGP

Epoch: Sep 14, 2026, 20:00 UTC

1 50202C 21125AY  26257.83381944 -.00019476  00000+0 -62635-3 0  2572
2 50202  53.1580  99.4544 0001321  84.1709 322.3645 15.31709281    17

Volg STARLINK-3256 in realtime met AllMySat

Download on the App Store